Regional Weather Roundup
Issued by NWS Upton, NY

Current Version | Previous Version | Text Only | Print | Product List | Glossary Off
Versions: 1 2 3 4 5 6 7 8 9 10 11 12 13 14 15 16 17 18 19 20 21 22 23 24 25 26 27 28 29 30 31 32 33 34 35 36 37 38 39 40 41 42 43 44 45 46 47 48 49 50
134 ASUS41 KOKX 302004 RWROKX REGIONAL WEATHER ROUNDUP NATIONAL WEATHER SERVICE NEW YORK NY 400 PM EDT SAT JUL 30 2016 NOTE: "FAIR" INDICATES FEW OR NO CLOUDS BELOW 12,000 FEET WITH NO SIGNIFICANT WEATHER AND/OR OBSTRUCTIONS TO VISIBILITY. NYZ071-072-176-178-NJZ106-104-302100- NEW YORK CITY METRO AREA CITY SKY/WX TMP DP RH WIND PRES REMARKS Central Park LGT RAIN 75 73 93 S5 30.03R FOG LaGuardia APRT LGT RAIN 79 73 82 S12 29.99R Kennedy INTL CLOUDY 78 75 90 SE13 30.00S Newark/Liberty RAIN 77 74 90 S8 29.99R FOG Bronx Bot Gard N/A 75 72 88 S9 30.01R Wall St Helipt CLOUDY 79 73 83 S7 30.00S Teterboro TSTM 78 72 81 S12 29.98R $$ NYZ177-179-078>081-302100- LONG ISLAND NEW YORK CITY SKY/WX TMP DP RH WIND PRES REMARKS Farmingdale PTSUNNY 79 73 82 S12G25 29.99F MacArthur/ISP PTSUNNY 79 72 79 S10 29.99F Shirley PTSUNNY 81 73 76 S13 30.00F Riverhead NOT AVBL Westhampton CLOUDY 80 70 71 SE8 30.02F Southhampton N/A 75 72 88 SE12 29.97F Bridgehampton N/A 79 72 78 S3 30.00F East Hampton PTSUNNY 77 71 81 SE9 30.00F Montauk N/A 79 72 79 VRB5 30.02F $$ NYZ052-065-067-302100- HUDSON VALLEY CITY SKY/WX TMP DP RH WIND PRES REMARKS White Plains CLOUDY 78 68 71 SE8 30.00S Newburgh PTSUNNY 84 70 61 VRB6 30.00F Montgomery LGT RAIN 80 68 66 N9 29.99F Poughkeepsie CLOUDY 85 65 51 N9 29.97F Albany CLOUDY 78 59 51 NW7 30.03F $$ NJZ001-105-106-008-010-013-015-019>022-104-302100- NEW JERSEY CITY SKY/WX TMP DP RH WIND PRES REMARKS Newark/Liberty RAIN 77 74 90 S8 29.99R FOG Teterboro TSTM 78 72 81 S12 29.98R Caldwell LGT RAIN 76 73 91 CALM 29.99R FOG Morristown RAIN 73 72 94 SW5 29.99R Somerville RAIN 73 71 93 VRB3 29.98R FOG Linden LGT RAIN 75 71 88 CALM 30.01R Sussex LGT RAIN 75 72 90 NE5 30.00S Abdover N/A 70 69 97 CALM 30.01R Trenton LGT RAIN 77 71 82 NE10 29.96R Millville MOSUNNY 84 67 56 SE15G21 29.96F Atlantic City CLOUDY 83 68 60 S10G21 29.97F Wrightstown MOSUNNY 84 71 66 S13 29.93S Toms River PTSUNNY 84 73 69 S13 29.98S HX 90 Belmar PTSUNNY 81 71 71 SE13G22 30.00R $$ PAZ047>061-062-071-302100- EASTERN PENNSYLVANIA CITY SKY/WX TMP DP RH WIND PRES REMARKS Philadelphia PTSUNNY 86 69 56 S10 29.95F HX 90 Allentown RAIN 72 69 90 CALM 29.99F FOG Scranton HVY RAIN 69 68 96 NE8 30.02R FOG $$ CTZ002-004>006-009-010-012-RIZ004-006-007-MAZ004-011-015-302100- SOUTHERN NEW ENGLAND IN CT CITY SKY/WX TMP DP RH WIND PRES REMARKS Bradley INTL PTSUNNY 90 61 37 SW6 29.98F HX 90 Hartford CLOUDY 83 69 62 SE8 29.97F Danbury PTSUNNY 83 68 60 SE10 30.00F Wtrbury/Oxford PTSUNNY 81 68 65 S12 30.04F Bridgeport MOSUNNY 81 71 71 SE9 29.98F Meriden CLOUDY 85 68 56 S9 29.98F New Haven PTSUNNY 82 72 71 SE15 29.99F Chester FAIR 81 70 69 SE8 30.01F Groton MOSUNNY 80 70 71 SE10 30.00F Wilimantic CLOUDY 80 68 66 S9 30.01S IN RI CITY SKY/WX TMP DP RH WIND PRES REMARKS Providence MOSUNNY 82 66 58 SE10 30.01F Block Island PTSUNNY 78 71 79 SE13 30.02F Westerly SUNNY 79 68 69 S10 30.02F IN MA CITY SKY/WX TMP DP RH WIND PRES REMARKS Boston PTSUNNY 76 62 62 E13 30.01F Worchester MOSUNNY 82 58 43 NW6 30.04F Westfield PTSUNNY 87 59 38 VRB3 29.99F Provincetown SUNNY 78 66 66 NE7 30.03F Nantucket CLOUDY 73 68 84 S5 30.03F $$ ANZ330-335-338-340-345-350-353-355-302100- COASTAL MARINE OBSERVATIONS STATION/POSITION TIME SKY/WX TEMP WIND PRES VSBY WAVE AIR SEA DIR/SP/G HT/PER (UTC) (F) (DEG/KT/KT) (MB) (MI) (FT/S) NY HARB ENTRANCE 1850 77 76 150/ 12/ 12 1015.2 2/ 5 20S FIRE ISLAND 1850 76 76 150/ 8/ 8 1015.7 2/ 5 GREAT SOUTH BAY 1930 77 83 170/ 10/ 12 N/A 23 SSW MONTAUK P 1850 75 74 150/ 8/ 8 1017.2 2/ 6 15 E BARNEGAT LI 1900 78 N/A 2/ 6 HUDSON CANYON 1850 77 79 1016.2 2/ 6 KINGS POINT 1900 81 74 1014.9 EXECUTION ROCKS 1900 78 90/ 6/ 8 N/A CENTRAL LI SOUND 1900 78 76 150/ 10/ 12 N/A 1 EASTERN LI SOUND 1900 74 69 130/ 8/ 10 N/A ROBBINS REEF 1900 77 150/ 16/ 19 1014.7 $$ >>>>>>>>>>>>>>>>>>>>>>>>>>>> KEY <<<<<<<<<<<<<<<<<<<<<<<<<<< > < > SKY/WX - Sky Condition/Present Weather < > TMP - Temperature in Fahrenheit < > DP - Dew Point in Fahrenheit < > RH - Relative Humidity in Percent < > WIND - Direction (from) and Speed in MPH < > PRES - Mean Sea Level Pressure (inches of Hg) < > WCI - Wind Chill Index < > VSB - VISIBILITY IN MILES < > HX - HEAT INDEX < > TC - TEMPERATURE IN CELSIUS < > VRB - VARIABLE WIND DIRECTION < > < >>>>>>>>>>>>>>>>>>>>>>>>>>>> KEY <<<<<<<<<<<<<<<<<<<<<<<<<<<

USA.gov is the U.S. government's official web portal to all federal, state and local government web resources and services.